EW7939 Weather Reports


time (UTC)temp
C
wind
direction
speed
KPH
gust
KPH
rain 1hr
cm
rain 24hr
cm
rain mn
cm
humidity
%
barometer
mb
20260906164553 33 131 3.2 14.5 0.00 0.00 0.00 65 1013.3
20260906163052 32 91 4.8 14.5 0.00 0.00 0.00 67 1013.4
20260906161549 32 99 3.2 12.9 0.00 0.00 0.00 69 1013.4
20260906160042 31 58 3.2 12.9 0.00 0.00 0.00 72 1013.6
20260906154541 30 67 3.2 11.3 0.00 0.00 0.00 75 1013.4
20260906153033 30 75 4.8 9.7 0.00 0.00 0.00 76 1013.4
20260906151530 28 83 3.2 9.7 0.00 0.00 0.00 80 1013.5
20260906150028 28 89 1.6 9.7 0.00 0.00 0.00 83 1013.4
20260906144522 27 54 3.2 6.4 0.00 0.00 0.00 85 1013.4
20260906143017 27 98 3.2 9.7 0.00 0.00 0.00 86 1013.4
20260906141515 26 39 3.2 8.0 0.00 0.00 0.00 87 1013.2
20260906140018 26 28 3.2 9.7 0.00 0.00 0.00 88 1013.3
20260906134512 25 36 3.2 14.5 0.00 0.00 0.00 89 1013.2
20260906133010 25 15 3.2 9.7 0.00 0.00 0.00 89 1013.3
20260906131508 25 24 0.0 8.0 0.00 0.00 0.00 88 1013.0
20260906130013 25 52 0.0 6.4 0.00 0.00 0.00 88 1012.7
20260906124504 25 78 0.0 6.4 0.00 0.00 0.00 88 1012.6
20260906123012 25 96 0.0 4.8 0.00 0.00 0.00 88 1012.5
20260906121503 25 69 0.0 11.3 0.00 0.00 0.00 87 1012.4
20260906120001 25 47 0.0 8.0 0.00 0.00 0.00 87 1012.5
20260906114622 25 35 0.0 6.4 0.00 0.00 0.00 87 1012.3
20260906113058 25 36 0.0 6.4 0.00 0.00 0.00 87 1012.2
20260906111621 25 47 0.0 4.8 0.00 0.00 0.00 86 1012.1
20260906110056 25 49 0.0 6.4 0.00 0.00 0.00 86 1012.0
20260906104557 25 53 0.0 4.8 0.00 0.00 0.00 86 1012.2
20260906103054 25 63 0.0 4.8 0.00 0.00 0.00 85 1012.0
20260906101552 25 56 0.0 6.4 0.00 0.00 0.00 85 1011.9
20260906100051 25 49 0.0 6.4 0.00 0.00 0.00 84 1011.6
20260906094549 25 115 0.0 3.2 0.00 0.00 0.00 83 1011.5
20260906093056 25 115 0.0 3.2 0.00 0.00 0.00 83 1011.5
20260906091548 25 115 0.0 1.6 0.00 0.00 0.00 83 1011.4
20260906090047 25 115 0.0 6.4 0.00 0.00 0.00 83 1011.3
20260906084551 25 101 1.6 4.8 0.00 0.00 0.00 82 1011.1
20260906083045 25 140 0.0 3.2 0.00 0.00 0.00 81 1011.0
20260906081551 25 140 0.0 4.8 0.00 0.00 0.00 80 1011.0
20260906080042 25 142 0.0 1.6 0.00 0.00 0.00 79 1010.9
20260906074544 25 142 0.0 4.8 0.00 0.00 0.00 79 1011.0
20260906073051 25 159 0.0 0.0 0.00 0.00 0.00 77 1011.1
20260906071538 25 159 0.0 0.0 0.00 0.00 0.00 77 1011.1
20260906070040 25 159 0.0 1.6 0.00 0.00 0.00 77 1011.1
20260906064535 25 159 0.0 0.0 0.00 0.00 0.00 77 1011.2
20260906063035 25 159 0.0 0.0 0.00 0.00 0.00 76 1011.3
20260906061534 26 159 0.0 0.0 0.00 0.00 0.00 76 1011.4
20260906060031 26 159 0.0 0.0 0.00 0.00 0.00 75 1011.4
20260906054531 26 159 0.0 1.6 0.00 0.00 0.00 75 1011.4
20260906053035 26 159 0.0 3.2 0.00 0.00 0.00 75 1011.3
20260906051526 26 159 0.0 1.6 0.00 0.00 0.00 74 1011.3
20260906050023 26 163 0.0 1.6 0.00 0.00 0.00 73 1011.2
20260906044522 26 163 0.0 3.2 0.00 0.00 0.00 73 1011.1
20260906043038 26 163 0.0 0.0 0.00 0.00 0.00 70 1011.1
20260906041522 27 163 0.0 0.0 0.00 0.00 0.00 71 1011.1
20260906040024 27 163 0.0 1.6 0.00 0.00 0.00 70 1011.0
20260906034525 27 163 0.0 0.0 0.00 0.00 0.00 68 1010.8
20260906033021 27 163 0.0 0.0 0.00 0.00 0.00 67 1010.6
20260906031516 -17 0.0 0.0 0.00 0.00 0.00 1010.5
20260906030012 -17 0.0 0.0 0.00 0.00 0.00 1010.4
20260906024508 -17 0.0 0.0 0.00 0.00 0.00 1010.2
20260906023003 -17 0.0 0.0 0.00 0.00 0.00 1010.0
20260906021559 -17 0.0 0.0 0.00 0.00 0.00 1009.9
20260906020055 -17 0.0 0.0 0.00 0.00 0.00 1009.7
20260906014606 -17 0.0 0.0 0.00 0.00 0.00 1009.6
20260906013050 31 163 0.0 1.6 0.00 0.00 0.00 57 1009.4
20260906011555 32 163 0.0 3.2 0.00 0.00 0.00 55 1009.2
20260906010049 32 163 0.0 1.6 0.00 0.00 0.00 54 1009.1
20260906004553 33 163 0.0 1.6 0.00 0.00 0.00 53 1009.0
20260906003049 -17 0.0 0.0 0.00 0.00 0.00 1009.0
20260906001540 -17 0.0 0.0 0.00 0.00 0.00 1009.0
20260906000038 -17 0.0 0.0 0.00 0.00 0.00 1009.0
20260905234536 -17 0.0 0.0 0.00 0.00 0.00 1009.0
20260905233027 -17 0.0 0.0 0.00 0.00 0.00 1008.9
20260905231522 -17 0.0 0.0 0.00 0.00 0.00 1008.8
20260905230018 -17 0.0 0.0 0.00 0.00 0.00 1008.6
20260905224515 -17 0.0 0.0 0.00 0.00 0.00 1008.6
20260905223009 -17 0.0 0.0 0.00 0.00 0.00 1008.6
20260905221505 -17 0.0 0.0 0.00 0.00 0.00 1008.5
20260905220111 -17 0.0 0.0 0.00 0.00 0.00 1008.5
20260905213032 -17 0.0 0.0 0.00 0.00 0.00 1008.8
20260905211527 -17 0.0 0.0 0.00 0.00 0.00 1009.1
20260905210024 -17 0.0 0.0 0.00 0.00 0.00 1009.3
20260905204518 -17 0.0 0.0 0.00 0.00 0.00 1009.6
20260905203015 -17 0.0 0.0 0.00 0.00 0.00 1009.6
20260905201518 -17 0.0 0.0 0.00 0.00 0.00 1009.8
20260905200014 -17 0.0 0.0 0.00 0.00 0.00 1009.9
20260905194513 -17 0.0 0.0 0.00 0.00 0.00 1010.0
20260905193015 -17 0.0 0.0 0.00 0.00 0.00 1010.2
20260905191513 -17 0.0 0.0 0.00 0.00 0.00 1010.2
20260905190036 -17 0.0 0.0 0.00 0.00 0.00 1010.4
20260905184511 -17 0.0 0.0 0.00 0.00 0.00 1010.6
20260905183015 -17 0.0 0.0 0.00 0.00 0.00 1010.7
20260905181511 -17 0.0 0.0 0.00 0.00 0.00 1010.8
20260905180002 -17 0.0 0.0 0.00 0.00 0.00 1010.9
20260905174559 -17 0.0 0.0 0.00 0.00 0.00 1011.0
20260905173053 -17 0.0 0.0 0.00 0.00 0.00 1011.4
20260905171550 -17 0.0 0.0 0.00 0.00 0.00 1011.7
20260905170045 -17 0.0 0.0 0.00 0.00 0.00 1011.9